(53843) Antjiekrog = 1998 XG38 = 2000 FG10

Discovered at Colleverde on 2000-03-30 by Colleverde.
(53843) Antjiekrog = 2000 FG10

Antjie Krog (b. 1952) is a South African writer. She has received many awards, including the South African Translators' Institute Award for Outstanding Translation. [Ref: Minor Planet Circ. 103026]

Orbit

Orbit type: Main Belt

Note: WebGL enabled browser required.

epoch2024-03-31.0
epoch JD2460400.5
perihelion date2022-10-29.47975
perihelion JD2459881.97975
argument of perihelion (°)219.46760
ascending node (°)72.55136
inclination (°)10.03062
eccentricity0.0772033
perihelion distance (AU)2.1777708
Tisserand w.r.t. Jupiter3.5
ΔV w.r.t. Earth (km/sec)9.7
semimajor axis (AU)2.3599682
mean anomaly (°)140.96469
mean daily motion (°/day)0.27185960
aphelion distance (AU)2.542
period (years)3.63
P-vector [x]0.36564448
P-vector [y]-0.80384899
P-vector [z]-0.46918112
Q-vector [x]0.91580292
Q-vector [y]0.40070755
Q-vector [z]0.02717486
absolute magnitude14.21
phase slope0.15
uncertainty0
referenceMPEC 2024-F14
observations used2924
oppositions19
arc length (days)9225
first opposition used1998
last opposition used2024
residual rms (arc-secs)0.60
perturbers coarse indicatorM-v
perturbers precise indicator003Ek
first observation date used1998-12-14.0
last observation date used2024-03-17.0
computer nameMPCLINUX
JD of orbit computation2456937.441927
perihelion JD uncertainty (days)1.0880E-04
argument of perihelion uncertainty (°)3.4357E-05
ascending node uncertainty (°)1.9951E-05
inclination uncertainty (°)3.6343E-06
eccentricity uncertainty 2.8644E-08
perihelion distance uncertainty (AU)6.7031E-08
Minimum Orbit Intersection Distances (in AU)
for orbit epoch: 2460400.5, reference: E2024-F78
Mercury1.72197
Venus1.45299
Earth1.17045
Mars0.71577
Jupiter2.55747
Saturn6.52248
Uranus15.9977
Neptune27.3988

Observations

2971 total observations over interval: 1998 12 14.33182 – 2024 03 17.150557
These data are available for download (format description).

Date (UT) J2000 RA J2000 Dec Magn Location Ref
1998 12 14.33182 05 43 20.47 +26 48 45.8 17.4   704 – Lincoln Laboratory ETS, New Mexico MPS 3418
1998 12 14.35361 05 43 18.85 +26 48 50.5 17.8   704 – Lincoln Laboratory ETS, New Mexico MPS 3418
1998 12 14.37536 05 43 17.17 +26 48 54.2 17.7   704 – Lincoln Laboratory ETS, New Mexico MPS 3418
1998 12 14.41900 05 43 13.91 +26 49 03.4 17.8   704 – Lincoln Laboratory ETS, New Mexico MPS 3418
1998 12 16.19837 05 41 05.62 +26 55 21.3 16.5   704 – Lincoln Laboratory ETS, New Mexico MPS 11925
1998 12 16.24621 05 41 02.05 +26 55 32.2 17.4   704 – Lincoln Laboratory ETS, New Mexico MPS 11925
1998 12 16.29988 05 40 57.98 +26 55 43.3 18.4   704 – Lincoln Laboratory ETS, New Mexico MPS 11925
1998 12 16.34770 05 40 54.45 +26 55 53.4 17.0   704 – Lincoln Laboratory ETS, New Mexico MPS 11925
1998 12 16.39558 05 40 50.77 +26 56 02.4 16.7   704 – Lincoln Laboratory ETS, New Mexico MPS 11925
1998 12 17.29820 05 39 45.49 +26 59 08.5 18.0   704 – Lincoln Laboratory ETS, New Mexico MPS 3418
1998 12 17.34455 05 39 41.98 +26 59 17.9 18.5   704 – Lincoln Laboratory ETS, New Mexico MPS 3418
1998 12 17.36767 05 39 40.29 +26 59 23.8 18.7   704 – Lincoln Laboratory ETS, New Mexico MPS 3418
1998 12 17.39072 05 39 38.53 +26 59 26.8   704 – Lincoln Laboratory ETS, New Mexico MPS 3418
2000 02 08.49038 14 08 57.74 -00 39 04.9 19.0   704 – Lincoln Laboratory ETS, New Mexico MPS 26643
2000 02 08.50740 14 08 58.37 -00 39 05.0 19.1   704 – Lincoln Laboratory ETS, New Mexico MPS 26643
2000 02 08.52447 14 08 59.05 -00 39 05.2 19.2   704 – Lincoln Laboratory ETS, New Mexico MPS 26643
2000 03 28.26516 14 07 15.443 +01 26 36.22 15.98 J I02 – Cerro Tololo Observatory, La Serena--2MASS MPS 81264
2000 03 30.90899 14 05 13.63 +01 37 16.6 17.9 V 596 – Colleverde di Guidonia MPS 12559
2000 03 30.91929 14 05 13.18 +01 37 18.1   596 – Colleverde di Guidonia MPS 12559
2000 03 30.92959 14 05 12.57 +01 37 21.1   596 – Colleverde di Guidonia MPS 12559
2000 03 30.94330 14 05 11.92 +01 37 25.4   596 – Colleverde di Guidonia MPS 12559
2000 04 01.87545 14 03 36.71 +01 45 09.9   596 – Colleverde di Guidonia MPS 12559
2000 04 01.88574 14 03 36.17 +01 45 12.8   596 – Colleverde di Guidonia MPS 12559
2000 04 01.89604 14 03 35.63 +01 45 14.7   596 – Colleverde di Guidonia MPS 12559
2000 04 04.32401 14 01 29.12 +01 54 41.3 17.9   704 – Lincoln Laboratory ETS, New Mexico MPS 12559
2000 04 04.33832 14 01 28.33 +01 54 44.7 18.0   704 – Lincoln Laboratory ETS, New Mexico MPS 12559
2000 04 04.35263 14 01 27.55 +01 54 48.0 18.1   704 – Lincoln Laboratory ETS, New Mexico MPS 12559
2000 04 04.36695 14 01 26.73 +01 54 50.3 18.0   704 – Lincoln Laboratory ETS, New Mexico MPS 12559
2000 04 04.38126 14 01 25.94 +01 54 54.0 18.1   704 – Lincoln Laboratory ETS, New Mexico MPS 12559
2000 04 05.88227 14 00 04.68 +02 00 29.9 17.6 V 596 – Colleverde di Guidonia MPS 12559
2000 04 05.89257 14 00 04.12 +02 00 33.4   596 – Colleverde di Guidonia MPS 12559
2000 04 06.90360 13 59 07.89 +02 04 13.5   596 – Colleverde di Guidonia MPS 12559
2000 04 06.91390 13 59 07.30 +02 04 16.6   596 – Colleverde di Guidonia MPS 12559
2000 04 06.92420 13 59 06.69 +02 04 17.9   596 – Colleverde di Guidonia MPS 12559
2000 04 07.31194 13 58 44.85 +02 05 41.9 16.7 R 699 – Lowell Observatory-LONEOS MPS 12559
2000 04 07.32378 13 58 44.16 +02 05 44.4   699 – Lowell Observatory-LONEOS MPS 12559
2000 04 07.33560 13 58 43.46 +02 05 47.0   699 – Lowell Observatory-LONEOS MPS 12559
2000 04 07.34749 13 58 42.77 +02 05 49.6   699 – Lowell Observatory-LONEOS MPS 12559
2000 04 10.51800 13 55 39.55 +02 16 36.2 16.2   608 – Haleakala-AMOS MPS 12559
2000 04 10.53023 13 55 38.81 +02 16 38.5 16.3   608 – Haleakala-AMOS MPS 12559
2000 04 10.54097 13 55 38.14 +02 16 40.6 16.4   608 – Haleakala-AMOS MPS 12559
2000 04 13.29476 13 52 54.08 +02 25 01.9 17.2   704 – Lincoln Laboratory ETS, New Mexico MPS 12559
2000 04 13.30806 13 52 53.28 +02 25 05.3 17.7   704 – Lincoln Laboratory ETS, New Mexico MPS 12559
2000 04 13.32137 13 52 52.42 +02 25 06.7 17.6   704 – Lincoln Laboratory ETS, New Mexico MPS 12559
2000 04 13.33472 13 52 51.60 +02 25 09.4 17.4   704 – Lincoln Laboratory ETS, New Mexico MPS 12559
2000 04 13.34817 13 52 50.76 +02 25 11.2 17.5   704 – Lincoln Laboratory ETS, New Mexico MPS 12559
2000 04 22.93359 13 43 03.29 +02 45 25.9 17.0   106 – Crni Vrh MPS 14210
2000 04 22.95038 13 43 02.22 +02 45 27.9 16.6   106 – Crni Vrh MPS 14210
2000 04 22.96798 13 43 01.11 +02 45 28.4 16.5   106 – Crni Vrh MPS 14210
2000 04 27.21995 13 38 45.64 +02 49 15.1 16.9 R 699 – Lowell Observatory-LONEOS MPS 14210
2000 04 27.23894 13 38 44.47 +02 49 16.2   699 – Lowell Observatory-LONEOS MPS 14210
2000 04 27.25650 13 38 43.40 +02 49 16.3 17.0   704 – Lincoln Laboratory ETS, New Mexico MPS 14210
2000 04 27.25792 13 38 43.32 +02 49 16.0   699 – Lowell Observatory-LONEOS MPS 14210
2000 04 27.27329 13 38 42.36 +02 49 17.0 16.9   704 – Lincoln Laboratory ETS, New Mexico MPS 14210
2000 04 27.27689 13 38 42.16 +02 49 16.7   699 – Lowell Observatory-LONEOS MPS 14210
2000 04 27.29689 13 38 40.92 +02 49 17.6 16.8   704 – Lincoln Laboratory ETS, New Mexico MPS 14210
2000 04 27.31094 13 38 40.06 +02 49 18.1 16.6   704 – Lincoln Laboratory ETS, New Mexico MPS 14210
2000 04 27.32541 13 38 39.15 +02 49 18.5 16.8   704 – Lincoln Laboratory ETS, New Mexico MPS 14210
2000 04 29.57250 13 36 28.26 +02 49 48.9 16.7   608 – Haleakala-AMOS MPS 14210
2000 04 29.58346 13 36 27.63 +02 49 48.9 16.8   608 – Haleakala-AMOS MPS 14210
2000 04 29.59435 13 36 26.99 +02 49 48.6 17.1   608 – Haleakala-AMOS MPS 14210
2000 05 04.26215 13 32 09.57 +02 47 27.7 16.8   704 – Lincoln Laboratory ETS, New Mexico MPS 14210
2000 05 04.27426 13 32 08.92 +02 47 26.8 17.1   704 – Lincoln Laboratory ETS, New Mexico MPS 14210
2000 05 04.28636 13 32 08.23 +02 47 25.9 17.0   704 – Lincoln Laboratory ETS, New Mexico MPS 14210
2000 05 04.29844 13 32 07.57 +02 47 25.6 16.9   704 – Lincoln Laboratory ETS, New Mexico MPS 14210
2000 05 04.31053 13 32 06.92 +02 47 25.5 17.3   704 – Lincoln Laboratory ETS, New Mexico MPS 14210
2000 05 04.333750 13 32 05.619 +02 47 23.26 17.43 V 645 – Apache Point-Sloan Digital Sky Survey MPS 81264
2000 05 04.337222 13 32 05.431 +02 47 23.05 18.24   645 – Apache Point-Sloan Digital Sky Survey MPS 81264
2000 05 08.14427 13 28 53.60 +02 41 59.3 17.8   704 – Lincoln Laboratory ETS, New Mexico MPS 14210
2000 05 08.15654 13 28 52.94 +02 41 57.7 18.1   704 – Lincoln Laboratory ETS, New Mexico MPS 14210
2000 05 08.16900 13 28 52.35 +02 41 56.9 19.0   704 – Lincoln Laboratory ETS, New Mexico MPS 14210
2000 05 08.18132 13 28 51.74 +02 41 54.4 18.2   704 – Lincoln Laboratory ETS, New Mexico MPS 14210
2000 06 10.15907 13 17 03.53 -00 02 43.2 18.0   704 – Lincoln Laboratory ETS, New Mexico MPS 15713
2000 06 10.17159 13 17 03.54 -00 02 49.1 18.7   704 – Lincoln Laboratory ETS, New Mexico MPS 15713
2000 06 10.18410 13 17 03.62 -00 02 54.4 18.2   704 – Lincoln Laboratory ETS, New Mexico MPS 15713
2000 06 10.19660 13 17 03.67 -00 03 00.3 18.1   704 – Lincoln Laboratory ETS, New Mexico MPS 15713
2000 06 10.20912 13 17 03.77 -00 03 05.4 18.6   704 – Lincoln Laboratory ETS, New Mexico MPS 15713
2000 06 24.19614 13 21 17.89 -02 01 17.9 19.2   704 – Lincoln Laboratory ETS, New Mexico MPS 16951
2000 06 24.20886 13 21 18.26 -02 01 26.3 18.6   704 – Lincoln Laboratory ETS, New Mexico MPS 16951
2000 06 24.23409 13 21 19.01 -02 01 39.7 18.8   704 – Lincoln Laboratory ETS, New Mexico MPS 16951
2001 08 20.41929 01 17 54.91 -08 11 07.0 18.3   704 – Lincoln Laboratory ETS, New Mexico MPS 33242
2001 08 20.44653 01 17 54.69 -08 11 14.7 18.0   704 – Lincoln Laboratory ETS, New Mexico MPS 33242
2001 08 20.46040 01 17 54.67 -08 11 19.2 18.2   704 – Lincoln Laboratory ETS, New Mexico MPS 33242
2001 08 29.32486 01 16 17.40 -08 56 38.9 18.8   644 – Palomar Mountain/NEAT MPS 34223
2001 08 29.34601 01 16 16.95 -08 56 46.1 17.9   644 – Palomar Mountain/NEAT MPS 34223
